Regional Weather Roundup
Issued by NWS

Home | Current Version | Previous Version | Text Only | Print | Product List | Glossary Off
Versions: 1 2 3 4 5 6 7 8 9 10 11 12 13 14 15 16 17 18 19 20 21 22 23 24 25 26 27 28 29 30 31 32 33 34 35 36 37 38 39 40 41 42 43 44 45 46 47 48 49 50

292
ASUS43 KDTX 231301
RWRMI
MICHIGAN HOURLY REGIONAL WEATHER ROUNDUP
NATIONAL WEATHER SERVICE DETROIT/PONTIAC MI
900 AM EDT FRI JUN 23 2017

NOTE: "FAIR" INDICATES FEW OR NO CLOUDS BELOW 12,000 FEET WITH NO
SIGNIFICANT WEATHER AND/OR OBSTRUCTION TO VISIBILITY.

MIZ047>049-052>055-059>063-066>070-074>076-081>083-231400-
SOUTHEAST LOWER MICHIGAN

CITY           SKY/WX    TMP DP  RH WIND       PRES   REMARKS
ADRIAN         CLOUDY    72  71  97 SW8       29.65F FOG
ALMA           CLOUDY    67  67  99 SW5       29.63R
ANN ARBOR      CLOUDY    72  72 100 SW10      29.62F
BAD AXE        CLOUDY    67  67  98 S9        29.61F
CARO           RAIN      66  66 100 S5        29.62R
DETROIT CITY   CLOUDY    72  71  97 SW12G17   29.61F
DETROIT        CLOUDY    73  71  93 SW15      29.62F
FLINT          CLOUDY    67  65  93 CALM      29.64R
GROSSE ILE     CLOUDY    72  70  95 SW8       29.62F
HILLSDALE      LGT RAIN  70  68  94 SW5       29.66R
HOWELL         RAIN      70  66  89 N6G17     29.64R

CITY           SKY/WX    TMP DP  RH WIND       PRES   REMARKS
JACKSON        CLOUDY    73  70  90 W12       29.65R
LAMBERTVILLE   LGT RAIN  72  70  95 W9        29.63F
LANSING        LGT RAIN  68  64  87 E8        29.63F FOG
LAPEER         RAIN      67  66  97 SE3       29.63F
MASON          RAIN      67  65  96 N9G23     29.66R
MONROE         CLOUDY    73  71  95 SW10      29.62F
PONTIAC        CLOUDY    70  70 100 S6        29.60F FOG
PORT HOPE        N/A     67  65  93 VRB5      29.58S
PORT HURON     RAIN      66  64  94 E7        29.64F
TRI CITIES     CLOUDY    66  66 100 S8        29.61S
MIDLAND        CLOUDY    67  66  96 S3        29.59F
TROY           CLOUDY    71  69  92 SW6       29.63S
SAGINAW HB     RAIN      64  63  94 S7        29.60F
$$
MIZ043>046-050>051-056>058-064>065-071>073-077>080-231400-
SOUTHWEST LOWER MICHIGAN

CITY           SKY/WX    TMP DP  RH WIND       PRES   REMARKS
BATTLE CREEK   PTSUNNY   73  70  90 NW9       29.64R
BENTON HARBOR  RAIN      66  63  90 E6        29.63F FOG
BIG RAPIDS     PTSUNNY   65  63  91 CALM      29.62F
COLDWATER      CLOUDY    73  73 100 W8        29.65R
FREMONT        PTSUNNY   66  66 100 NW7       29.63S
HOLLAND        CLOUDY    68  66  93 W6        29.66R
GRAND RAPIDS   LGT RAIN  68  68 100 NW6       29.63S
IONIA          PTSUNNY   68  66  95 CALM      29.61F
KALAMAZOO      CLOUDY    72  65  78 W7        29.65R
LUDINGTON      CLOUDY    65  64  99 N5        29.63R
MARSHALL       CLOUDY    74  73  98 W6        29.63R
MOUNT PLEASANT CLOUDY    66  65  97 W3        29.61R
MUSKEGON       CLOUDY    68  65  90 NW8       29.64R
SOUTH HAVEN    HVY RAIN  66  65  97 N8        29.63F
$$
MIZ016>042-231400-
NORTHERN LOWER MICHIGAN

CITY           SKY/WX    TMP DP  RH WIND       PRES   REMARKS
ALPENA         CLOUDY    67  66  97 W6        29.59F
BEAVER ISLAND  FOG       63  63 100 CALM      29.60R VSB 1/4
BELLAIRE       CLOUDY    64  62  94 CALM      29.61S
CADILLAC       CLOUDY    65  63  94 NW6       29.63R
CHARLEVOIX     FOG       61  61 100 CALM      29.63S VSB<1/4
FRANKFORT      PTSUNNY   65  61  87 CALM      29.62S
GAYLORD        CLOUDY    65  61  87 W3        29.62S
GRAYLING       CLOUDY    65  64  96 CALM      29.62F
HARBOR SPRINGS FOG       59  59 100 SW3       29.60S VSB<1/4
HOUGHTON LAKE  CLOUDY    66  63  90 W5        29.62F
MANISTEE       CLOUDY    65  63  93 W6        29.63R
OSCODA         CLOUDY    67  66  96 W6        29.59F
PELLSTON       CLOUDY    64  62  93 W5        29.59F FOG
ROGERS CITY    CLOUDY    64  63  96 CALM      29.59F
TRAVERSE CITY  CLOUDY    66  62  87 NW6       29.60S
$$
MIZ007>008-015-231400-
EASTERN UPPER MICHIGAN

CITY           SKY/WX    TMP DP  RH WIND       PRES   REMARKS
KINROSS        CLOUDY    62  60  93 CALM      29.59F
MACKINAC ISLAN FOG       61  61 100 SW3       29.59F VSB<1/4
NEWBERRY       MOSUNNY   63  62  97 W5        29.59S
S. S. MARIE    MOSUNNY   63  61  93 CALM      29.57F
MUNISING         N/A     66  58  75 SW6       29.59F
$$
MIZ004>006-011>014-085-231400-
CENTRAL UPPER MICHIGAN

CITY           SKY/WX    TMP DP  RH WIND       PRES   REMARKS
MANISTIQUE     SUNNY     64  60  89 NW5       29.60F
ESCANABA       MOSUNNY   64  59  83 W5        29.61F
MENOMINEE      CLOUDY    65  61  87 CALM      29.64F
SAWYER-GWINN   SUNNY     63  54  72 W5        29.62F
$$
MIZ001>003-009>011-084-231400-
WESTERN UPPER MICHIGAN

CITY           SKY/WX    TMP DP  RH WIND       PRES   REMARKS
IRON MOUNTAIN  SUNNY     65  56  72 W6        29.63F
HOUGHTON       SUNNY     63  52  67 W20       29.58S
COPPER HARBOR    N/A     68  51  54 N8        29.55S
IRONWOOD       SUNNY     61  50  67 W13       29.65S
$$

ABBREVIATIONS USED IN REMARKS
   TC - TEMPERATURE IN CELSIUS
  WCI - WIND CHILL INDEX
   HX - HEAT INDEX
  VSB - VISIBILITY





USA.gov is the U.S. government's official web portal to all federal, state and local government web resources and services.